This demonstration page uses our WeatherBlox Daily Observations layout. Learn more.

Left ArrowRight Arrow

Hourly Observations for December 8, 2020

Temp ( °F °C ) Dew Point ( °F °C ) Humidity (%) Winds ( mph kmh ) Pressure ( in mb ) Visibility ( mi km ) Precip ( " mm )
2:53 am 02:53 Cloudy 31 -0.6 22 -5.6 69 69 W 3 6 30.13 1020 10 16 0.00 0.00
3:53 am 03:53 Cloudy 30 -1.1 22 -5.6 72 72 W 3 6 30.13 1020 10 16 0.00 0.00
4:53 am 04:53 Cloudy 31 -0.6 21 -6.1 67 67 WNW 5 7 30.14 1021 10 16 0.00 0.00
5:53 am 05:53 Cloudy 31 -0.6 22 -5.6 69 69 W 5 7 30.14 1021 10 16 0.00 0.00
6:53 am 06:53 Cloudy 31 -0.6 22 -5.6 69 69 WSW 3 6 30.15 1021 10 16 0.00 0.00
7:53 am 07:53 Cloudy 31 -0.6 21 -6.1 67 67 W 5 7 30.16 1022 10 16 0.00 0.00
8:53 am 08:53 Cloudy 32 0 21 -6.1 64 64 W 3 6 30.19 1022 10 16 0.00 0.00
9:53 am 09:53 Cloudy 33 0.6 21 -6.1 61 61 WNW 7 11 30.21 1023 10 16 0.00 0.00
10:53 am 10:53 Cloudy 33 0.6 21 -6.1 61 61 WNW 3 6 30.19 1022 10 16 0.00 0.00
11:53 am 11:53 Mostly Cloudy 34 1.1 22 -5.6 61 61 WNW 8 13 30.20 1023 10 16 0.00 0.00
12:53 pm 12:53 Cloudy 38 3.3 23 -5 55 55 Calm 30.16 1021 10 16 0.00 0.00
1:53 pm 13:53 Sunny 37 2.8 22 -5.6 54 54 VRB 3 6 30.12 1020 10 16 0.00 0.00
2:53 pm 14:53 Sunny 39 3.9 23 -5 53 53 VRB 5 7 30.12 1020 10 16 0.00 0.00
3:53 pm 15:53 Partly Cloudy 37 2.8 23 -5 57 57 SSW 6 9 30.12 1020 10 16 0.00 0.00
4:53 pm 16:53 Cloudy 36 2.2 23 -5 59 59 SSW 6 9 30.12 1020 10 16 0.00 0.00
5:53 pm 17:53 Cloudy 35 1.7 24 -4.4 64 64 WSW 10 17 30.12 1020 10 16 0.00 0.00
6:53 pm 18:53 Cloudy 34 1.1 24 -4.4 67 67 VRB 6 9 30.07 1018 10 16 0.00 0.00
7:53 pm 19:53 Clear 34 1.1 24 -4.4 67 67 VRB 3 6 30.06 1018 10 16 0.00 0.00
8:53 pm 20:53 Clear 34 1.1 24 -4.4 67 67 SSW 3 6 30.09 1019 10 16 0.00 0.00
9:53 pm 21:53 Clear 34 1.1 25 -3.9 70 70 VRB 5 7 30.07 1018 10 16 0.00 0.00
10:53 pm 22:53 Clear 33 0.6 25 -3.9 72 72 SSW 5 7 30.07 1018 10 16 0.00 0.00
11:53 pm 23:53 Clear 33 0.6 25 -3.9 72 72 SSW 5 7 30.05 1018 10 16 0.00 0.00

Powered by AerisWeather